User: anonymous   Login
Location: Unspecified
(0.0000°N, 0.0000°E)
Time: 19:34:41
(UTC+00:00)
Language:

CBERS-4 - Orbit

View from above orbital plane
View from above orbital plane
View from above satellite
View from above satellite

Ground track
Ground track

The orbit data is extracted from the following two-line orbital elements,

1 40336U 14079A   18344.52587978 -.00000001  00000-0  14399-4 0  9990
2 40336  98.3963  51.6182 0000987 108.9919 251.1377 14.35491596210073
Epoch (UTC): 10 December 2018 12:37:16
Eccentricity: 0.0000987
inclination: 98.3963°
perigee height: 773 km
apogee height: 774 km
right ascension of ascending node: 51.6182°
argument of perigee: 108.9919°
revolutions per day: 14.35491596
mean anomaly at epoch: 251.1377°
orbit number at epoch: 21007

The dashed part of the orbit path shows where the satellite is in the earth's shadow,  

DLR